This demonstration page uses our WeatherBlox Daily Observations layout. Learn more.

Left ArrowRight Arrow

44.31136, -96.79839

Hourly Observations for August 13, 2018

Temp ( °F °C ) Dew Point ( °F °C ) Humidity (%) Winds ( mph kmh ) Pressure ( in mb ) Visibility ( mi km ) Precip ( " mm )
12:56 am 00:56 Clear 70 21.1 67 19.4 90 90 SSE 8 13 30.06 1018 10 16 0.00 0.00
1:56 am 01:56 Clear 69 20.6 66 18.9 90 90 SSE 10 17 30.05 1018 10 16 0.00 0.00
2:56 am 02:56 Clear 68 20 65 18.3 90 90 SSE 10 17 30.04 1017 10 16 0.00 0.00
3:56 am 03:56 Clear 67 19.4 64 17.8 91 91 SSE 7 11 30.04 1017 10 16 0.00 0.00
4:56 am 04:56 Clear 66 18.9 63 17.2 90 90 SSE 8 13 30.04 1017 10 16 0.00 0.00
5:56 am 05:56 Clear 66 18.9 63 17.2 90 90 SSE 9 15 30.04 1017 10 16 0.00 0.00
6:56 am 06:56 Sunny 66 18.9 63 17.2 90 90 S 8 13 30.04 1017 10 16 0.00 0.00
7:56 am 07:56 Sunny 68 20 64 17.8 87 87 SSE 10 17 30.04 1017 10 16 0.00 0.00
8:56 am 08:56 Sunny 72 22.2 65 18.3 79 79 S 10 17 30.03 1017 10 16 0.00 0.00
9:56 am 09:56 Sunny 77 25 68 20 74 74 S 9 15 30.01 1016 10 16 0.00 0.00
10:56 am 10:56 Sunny 80 26.7 67 19.4 64 64 S 13 20 30.01 1016 10 16 0.00 0.00
11:56 am 11:56 Sunny 82 27.8 68 20 63 63 S 14 22 30.01 1016 10 16 0.00 0.00
12:56 pm 12:56 Sunny 84 28.9 70 21.1 63 63 S 14 22 30.00 1016 10 16 0.00 0.00
1:56 pm 13:56 Sunny 85 29.4 70 21.1 61 61 S 16 26 29.98 1015 10 16 0.00 0.00
2:56 pm 14:56 Sunny 86 30 70 21.1 59 59 S 15 24 29.98 1015 10 16 0.00 0.00
3:56 pm 15:56 Mostly Sunny 87 30.6 69 20.6 55 55 S 15 24 29.97 1015 10 16 0.00 0.00
4:56 pm 16:56 Mostly Sunny 87 30.6 71 21.7 59 59 S 13 20 29.96 1015 10 16 0.00 0.00
5:56 pm 17:56 Mostly Sunny 85 29.4 71 21.7 63 63 S 13 20 29.96 1015 10 16 0.00 0.00
6:56 pm 18:56 Sunny 84 28.9 70 21.1 63 63 S 9 15 29.96 1014 10 16 0.00 0.00
7:56 pm 19:56 Sunny 81 27.2 71 21.7 72 72 S 8 13 29.95 1014 10 16 0.00 0.00
8:56 pm 20:56 Clear 78 25.6 70 21.1 76 76 S 8 13 29.96 1015 10 16 0.00 0.00
9:56 pm 21:56 Clear 76 24.4 69 20.6 79 79 S 8 13 29.97 1015 10 16 0.00 0.00
10:56 pm 22:56 Clear 74 23.3 69 20.6 85 85 SE 7 11 29.97 1015 10 16 0.00 0.00
11:56 pm 23:56 Clear 72 22.2 69 20.6 91 91 SE 7 11 29.97 1015 10 16 0.00 0.00

Powered by AerisWeather